Airfield :
LOGIN :

Register | Disclaimer

   EN    FR    IT 

 










Legend :    VFR   Marginal VFR   IFR   Intensive IFR   Very Intensive IFR
Visi :
Ceiling :
>= 8 km
>= 3000ft
5 to 8 km
1000 to 3000 ft
1500m to 5 km
500 to 1000 ft
800 to 1500m
200 to 500 ft
< 800m
< 200 ft
Symbols :   Thunderstorms  Fog  Heavy snow  Heavy precipitations  Wind > 20 kt
SIGMETs :     Misc.  Thunderstorms  Icing  Turbulence  Mountain Waves  Volcanic Ashes






- Airport Elevation : 336 ft
- IATA code : GCI


EGJB - Guernsey

CURRENT METAR :
  • 100520Z 20015KT 9999 FEW016 SCT020 10/08 Q0998

EXPIRED METARs :
  • 100450Z 19013KT 9999 FEW016 SCT042 10/09 Q0998
  • 100420Z 20015KT 9999 FEW016 SCT042 10/09 Q0998
  • 100350Z 20013KT 9999 FEW016 10/09 Q0997
  • 100320Z 20013KT 9999 FEW016 10/09 Q0997
  • 100250Z 20012KT 9999 FEW015 SCT048 10/09 Q0997

TAF TAF EGJB
Valid from the 10 at 06:00 until the 10 at 15:00 UTC


100457Z 1006/1015 19014KT 9999 FEW015 SCT040
PROB40
TEMPO 1006/1015 8000 SHRA BKN015
BECMG 1014/1015 27010KT
ATIS : +44 1481 238 957



MET'MAP, your aeronautical weather chart ! - Copyright ORBIFLY December 2007 - Disclaimer

ORBIFLY MET'MAP TEAM :

Programming & Development : Alexandra Zaïnal
Concept & original design : Baudouin d'Aumeries
Assistance for programming : Marc-Olivier Méhu
Technical & hardware support : Manuel Goepfert

Contact : metmap@orbifly.com




SOURCES & CREDITS :

   NOAA